Wind_Speed
33 34 33 29 26 23 20 19 20 20 20 20 21 21 22 23 24 25 25 25 26 26 27 27 27 28 29 30 31 32 32 31 31 31 30 30 29 28 28 28 29 29 30
36 35 32 29 29 26 23 21 21 21 21 21 23 25 26 27 27 28 29 29 29 29 29 30 31 32 32 32 31 30 31 32 32 30 30 30 30 29 29 29 30 30 32
33 34 31 30 27 26 24 23 23 23 23 23 23 26 28 29 29 30 31 32 33 33 32 33 34 35 35 32 31 30 31 31 31 31 29 30 30 29 28 29 30 31 33
32 29 28 30 28 27 26 24 24 25 26 25 26 27 28 30 31 33 35 36 34 34 35 34 36 37 36 33 30 29 31 32 30 28 29 30 30 31 31 32 33 34 36
29 29 29 30 30 29 28 27 27 28 28 29 29 31 32 33 34 35 36 37 37 37 36 38 38 37 37 34 32 30 29 30 29 28 29 31 32 34 35 35 36 38 39
28 28 28 30 30 30 31 30 30 31 31 31 32 34 35 37 37 37 38 38 38 36 36 38 38 37 36 35 33 32 32 32 32 32 33 33 34 36 38 40 40 41 42
27 27 29 30 31 32 32 32 33 34 34 35 36 36 38 39 40 39 38 37 37 35 35 37 37 35 35 35 35 35 35 34 34 35 36 36 37 39 40 42 43 45 46
27 28 29 30 31 33 34 36 37 37 37 37 39 39 39 40 41 41 40 39 39 40 39 39 38 37 37 37 37 37 38 37 37 39 40 40 41 41 43 44 46 48 50
27 28 30 31 33 34 36 38 39 38 38 39 39 39 40 42 43 43 42 42 42 42 42 42 42 40 41 41 41 41 41 41 41 42 42 44 45 46 47 48 49 51 53
27 28 29 30 32 34 35 37 38 38 39 40 40 40 41 42 42 42 42 43 43 45 45 44 44 44 44 45 44 44 43 44 45 45 47 48 49 49 50 52 52 53 55
27 27 28 29 31 33 34 35 36 38 39 40 41 41 42 44 44 44 45 46 47 47 47 47 47 47 47 47 47 48 48 49 48 48 50 50 51 52 52 53 55 57 58
29 29 30 30 31 33 34 35 37 38 39 41 42 42 43 44 45 45 46 48 48 49 49 49 49 49 50 49 49 49 50 51 52 52 52 53 54 55 55 57 58 59 60
29 30 31 32 34 35 36 36 37 38 40 41 42 44 44 45 45 46 48 48 49 50 51 50 51 51 51 51 51 52 52 53 54 54 54 55 56 58 58 59 60 61 63
28 30 32 33 34 35 36 37 38 39 41 42 43 44 44 45 47 48 49 49 49 50 50 51 51 52 52 52 53 53 54 55 55 55 55 56 56 57 58 59 60 60 61
28 30 32 33 34 35 36 37 38 39 40 41 43 44 45 46 46 47 48 48 48 49 50 51 52 52 52 53 53 53 53 54 54 55 56 56 55 55 56 57 57 57 56
29 30 31 32 33 34 36 37 37 38 39 40 41 42 43 43 44 45 46 46 47 48 49 49 49 51 51 51 52 53 53 54 55 55 55 54 54 53 54 55 54 52 49
28 29 30 31 32 33 33 34 35 37 37 38 38 39 40 40 41 41 43 44 45 46 47 47 47 48 50 51 52 53 54 54 53 52 51 51 51 50 49 48 46 44 41
27 28 29 30 30 30 32 33 34 34 34 35 35 36 36 37 38 39 40 41 42 43 43 44 45 46 48 49 49 50 50 49 49 48 47 46 45 43 42 39 37 35 34
26 26 26 26 26 27 27 29 29 30 31 31 32 33 33 34 34 35 36 37 38 39 40 41 42 44 45 45 45 45 45 45 44 42 40 38 35 33 31 29 28 27 25
23 23 23 23 24 24 25 25 26 26 27 27 28 28 29 30 31 32 33 34 34 36 36 37 39 40 41 41 40 40 38 36 33 29 26 24 22 21 21 20 19 17 16
19 19 19 20 21 21 22 22 23 23 24 24 24 25 25 26 27 28 29 30 31 31 33 34 35 35 34 34 32 30 27 24 20 17 14 13 13 12 12 11 10 9 8
15 15 16 16 17 18 19 19 19 20 20 21 22 22 23 23 23 24 25 26 27 28 29 29 29 28 26 24 22 19 16 13 11 9 8 7 8 8 8 8 8 7 7
13 13 13 14 15 15 16 17 17 18 18 18 19 19 19 20 21 22 23 23 24 24 24 23 22 20 18 16 14 12 10 8 8 7 7 8 9 9 9 9 9 9 8
11 12 12 13 14 15 15 15 15 15 15 15 16 16 17 18 19 19 20 20 19 19 18 18 17 15 13 11 10 9 8 8 8 8 9 10 10 10 11 10 10 10 10
11 12 12 13 13 13 14 14 14 14 14 14 14 15 16 16 16 17 16 15 15 15 14 13 12 11 10 9 9 9 9 8 9 9 9 9 9 10 10 10 9 9 9
10 11 12 12 12 12 12 12 13 13 13 13 13 14 14 14 14 13 12 12 12 12 11 10 10 9 9 9 9 9 9 9 9 9 9 9 9 9 9 9 9 9 9
Wind_Direction
232 232 228 226 228 233 241 247 250 253 254 256 257 257 258 260 264 267 267 270 271 271 274 277 282 285 287 287 287 289 291 290 289 286 285 286 283 278 276 276 276 278 278
227 229 226 224 225 231 237 246 251 254 256 261 261 259 260 262 266 268 269 270 272 274 277 279 283 284 285 288 290 289 293 291 288 286 285 286 284 279 278 276 277 277 277
224 226 229 228 230 231 235 244 250 256 260 264 267 267 264 264 267 270 269 271 274 276 279 283 284 285 287 290 289 294 297 296 291 285 286 286 283 281 279 278 278 278 278
225 227 230 231 235 235 238 246 252 257 263 269 269 268 269 269 269 270 271 271 274 279 280 286 285 285 287 290 291 295 299 296 294 288 287 286 283 284 283 280 278 279 280
232 232 233 233 235 238 243 249 253 258 263 267 269 269 268 270 270 271 275 275 276 282 283 285 286 285 287 291 293 295 298 298 294 290 288 287 286 283 281 281 281 280 280
237 237 236 238 239 244 247 249 253 258 261 265 267 269 270 270 271 273 278 279 280 284 288 290 289 289 290 294 295 296 298 299 294 290 289 287 286 284 282 281 280 280 280
238 237 239 242 245 248 252 254 256 260 263 266 268 271 274 274 275 277 279 282 285 290 291 293 293 296 296 296 296 299 298 296 293 289 288 286 285 284 282 281 280 280 280
240 240 241 243 246 250 253 256 259 262 264 268 269 271 276 277 277 278 282 286 290 293 297 299 300 300 300 300 298 299 296 294 291 288 286 284 284 283 281 280 280 280 280
241 241 242 244 247 250 253 257 259 262 264 267 269 272 275 276 280 282 285 289 291 295 296 298 300 299 299 298 296 295 293 291 289 287 285 283 282 282 279 278 279 279 279
241 242 243 246 248 250 252 255 258 261 264 267 271 273 275 278 280 282 285 290 293 294 296 297 297 296 295 295 294 292 291 290 289 287 286 284 281 280 279 279 278 278 278
240 242 244 247 250 252 254 256 258 261 263 266 270 273 275 277 279 282 285 288 290 291 293 294 294 294 293 293 291 290 288 287 285 283 283 281 279 278 279 280 280 279 279
240 242 246 248 250 252 255 257 259 261 264 266 270 273 275 277 279 282 285 286 288 289 291 291 291 290 290 290 289 287 285 285 284 283 282 281 279 278 280 281 280 279 279
246 247 249 251 252 254 256 259 261 263 266 269 271 274 276 278 280 282 284 286 287 288 288 289 289 289 288 287 287 284 283 283 282 282 281 280 280 279 280 281 281 280 280
253 253 254 255 257 258 259 261 264 266 269 271 273 275 278 279 281 283 284 285 286 287 287 288 288 288 286 285 285 283 282 281 281 282 282 283 283 284 284 283 283 283 284
260 259 260 262 262 263 263 265 266 268 270 272 273 275 277 278 280 282 283 284 285 286 286 286 286 286 286 286 285 284 284 283 283 284 284 285 285 285 286 286 286 287 287
264 264 264 266 266 266 267 268 269 270 271 273 274 276 278 279 280 281 282 283 284 285 285 284 286 287 288 288 288 287 286 287 287 288 287 287 287 288 288 289 289 289 290
267 267 266 267 268 268 268 269 270 271 272 274 275 277 278 279 280 281 283 284 285 285 285 287 289 291 292 293 292 292 291 291 291 291 291 290 290 291 291 292 292 292 292
266 268 269 271 271 271 271 271 273 274 274 275 277 278 280 282 283 284 285 286 287 289 291 293 295 295 295 295 295 295 295 294 294 293 292 292 293 293 293 293 292 293 293
269 271 272 273 273 273 273 274 275 275 275 276 279 281 282 284 286 288 289 291 293 295 297 298 298 298 298 298 298 298 297 296 295 294 293 293 294 295 296 296 297 296 296
270 270 271 272 273 274 275 276 277 278 279 280 282 284 285 288 290 292 294 296 298 300 301 301 302 302 302 302 301 301 301 301 300 300 300 301 302 304 304 303 303 302 301
274 275 275 275 275 277 277 279 279 281 283 285 287 289 291 294 296 297 299 300 302 303 305 306 307 307 307 307 308 309 309 308 309 310 312 314 317 320 322 323 325 327 325
279 280 280 279 279 281 283 283 284 285 286 288 291 293 295 297 299 301 303 305 308 310 311 313 314 314 315 317 319 321 323 326 331 337 343 349 354 1 8 13 17 14 10
286 284 284 285 287 287 288 289 288 288 289 291 293 295 298 301 304 307 310 312 314 316 318 320 322 324 327 331 337 343 350 1 14 27 35 35 35 36 34 30 26 23 17
294 292 292 291 290 289 291 293 293 294 295 296 299 302 304 308 311 313 315 318 320 322 325 329 332 337 342 349 357 9 22 32 42 52 51 46 42 34 28 24 21 17 11
298 298 299 298 296 295 296 295 295 297 298 300 303 306 308 311 314 317 321 325 329 333 337 342 349 356 4 13 22 32 44 51 57 56 49 41 33 28 23 18 12 5 358
313 312 311 308 305 303 301 298 296 298 299 300 302 304 307 311 316 322 329 336 342 348 353 0 8 16 24 32 39 44 48 52 54 49 41 36 32 26 19 12 4 355 351
Height
5838 5839 5842 5846 5850 5853 5856 5858 5860 5862 5863 5865 5866 5866 5867 5868 5869 5869 5869 5870 5870 5870 5869 5869 5869 5868 5866 5865 5863 5861 5860 5858 5856 5855 5854 5853 5852 5852 5851 5851 5850 5850 5849
5832 5832 5833 5840 5844 5848 5851 5853 5855 5857 5859 5860 5861 5862 5862 5863 5864 5864 5865 5864 5864 5864 5863 5863 5863 5861 5860 5858 5856 5854 5853 5851 5849 5848 5847 5846 5846 5845 5845 5844 5843 5843 5842
5823 5822 5829 5834 5837 5842 5845 5848 5850 5852 5854 5856 5856 5856 5856 5857 5859 5859 5859 5858 5857 5857 5856 5856 5856 5855 5854 5851 5849 5847 5846 5844 5841 5840 5840 5839 5839 5838 5838 5837 5836 5836 5835
5816 5817 5824 5830 5834 5837 5840 5843 5845 5847 5849 5850 5851 5851 5851 5852 5852 5852 5852 5851 5850 5850 5849 5848 5848 5848 5846 5843 5840 5839 5839 5838 5836 5835 5834 5833 5832 5831 5830 5830 5829 5828 5826
5813 5816 5820 5824 5827 5831 5835 5838 5840 5842 5843 5845 5846 5845 5845 5845 5845 5845 5844 5844 5844 5843 5842 5841 5839 5838 5837 5835 5834 5833 5832 5831 5830 5829 5827 5825 5824 5823 5822 5821 5820 5819 5817
5812 5814 5817 5819 5821 5826 5830 5832 5834 5835 5837 5838 5839 5839 5838 5837 5837 5837 5837 5836 5836 5835 5834 5832 5830 5830 5829 5828 5827 5826 5825 5824 5822 5821 5820 5818 5816 5815 5813 5812 5810 5809 5807
5809 5811 5814 5816 5819 5822 5824 5826 5827 5829 5830 5831 5832 5832 5832 5831 5830 5830 5830 5829 5828 5826 5825 5825 5823 5822 5822 5820 5819 5818 5817 5815 5814 5812 5811 5809 5807 5806 5804 5802 5800 5798 5796
5805 5807 5809 5812 5814 5816 5818 5820 5822 5823 5824 5824 5825 5825 5825 5825 5823 5822 5821 5820 5820 5819 5818 5817 5816 5814 5814 5812 5811 5810 5808 5807 5805 5803 5801 5799 5797 5795 5793 5791 5789 5786 5784
5800 5802 5805 5807 5809 5811 5812 5814 5815 5816 5817 5818 5818 5818 5818 5818 5816 5815 5813 5812 5811 5810 5810 5809 5808 5806 5805 5804 5802 5800 5798 5796 5795 5793 5790 5788 5786 5784 5781 5779 5777 5775 5771
5795 5797 5799 5801 5802 5804 5805 5807 5808 5808 5809 5810 5810 5810 5810 5810 5809 5807 5806 5804 5803 5802 5801 5800 5798 5797 5795 5793 5792 5789 5787 5785 5783 5781 5778 5776 5774 5771 5769 5766 5763 5761 5758
5790 5792 5793 5795 5796 5797 5799 5800 5801 5801 5802 5802 5803 5802 5802 5802 5801 5800 5798 5796 5795 5794 5792 5790 5788 5786 5784 5782 5780 5778 5775 5773 5771 5769 5766 5764 5761 5759 5756 5753 5750 5747 5743
5784 5785 5787 5788 5790 5791 5792 5793 5793 5794 5794 5795 5795 5795 5794 5793 5792 5791 5789 5788 5786 5784 5781 5779 5777 5775 5772 5770 5768 5766 5763 5761 5759 5756 5754 5751 5748 5745 5742 5739 5735 5732 5728
5778 5779 5781 5782 5783 5783 5784 5785 5786 5786 5787 5786 5786 5786 5785 5784 5782 5781 5779 5777 5775 5773 5770 5768 5765 5762 5760 5757 5755 5753 5750 5748 5745 5742 5740 5737 5734 5730 5727 5723 5719 5715 5711
5771 5772 5773 5774 5775 5775 5776 5777 5777 5777 5777 5777 5777 5776 5775 5773 5772 5770 5768 5766 5764 5761 5758 5756 5753 5750 5747 5745 5742 5740 5737 5734 5731 5728 5725 5722 5718 5715 5711 5707 5703 5699 5694
5764 5764 5765 5766 5766 5767 5767 5767 5768 5768 5767 5767 5766 5765 5764 5763 5761 5759 5757 5755 5753 5750 5747 5744 5741 5738 5735 5732 5729 5727 5724 5720 5717 5713 5710 5707 5703 5698 5694 5691 5686 5682 5678
5756 5756 5756 5757 5757 5758 5758 5758 5758 5758 5758 5757 5756 5755 5754 5752 5751 5749 5747 5744 5742 5739 5736 5733 5729 5726 5723 5720 5716 5713 5709 5706 5702 5698 5694 5691 5687 5682 5678 5674 5671 5667 5664
5748 5748 5748 5748 5748 5749 5749 5749 5749 5748 5748 5747 5746 5745 5744 5742 5741 5739 5737 5734 5732 5729 5725 5722 5718 5715 5711 5707 5703 5699 5695 5691 5687 5683 5679 5675 5672 5667 5663 5660 5657 5654 5651
5740 5740 5740 5740 5740 5740 5740 5740 5740 5739 5739 5738 5737 5736 5735 5733 5731 5729 5727 5724 5721 5718 5715 5711 5707 5703 5699 5694 5690 5685 5680 5676 5672 5668 5664 5660 5657 5653 5650 5647 5645 5642 5640
5733 5733 5733 5733 5733 5733 5732 5732 5731 5731 5730 5729 5728 5727 5726 5724 5722 5720 5718 5715 5712 5709 5705 5701 5697 5692 5687 5682 5677 5672 5667 5663 5658 5654 5651 5647 5645 5642 5639 5637 5635 5634 5632
5727 5727 5726 5726 5726 5726 5725 5725 5724 5724 5723 5722 5721 5720 5718 5717 5714 5712 5709 5706 5703 5700 5696 5691 5686 5681 5676 5670 5665 5660 5655 5650 5646 5643 5640 5638 5636 5634 5632 5630 5629 5628 5627
5722 5721 5721 5720 5720 5720 5719 5719 5718 5717 5716 5715 5714 5713 5711 5709 5707 5705 5702 5699 5695 5691 5687 5682 5677 5672 5666 5661 5656 5651 5646 5643 5640 5637 5635 5634 5632 5630 5628 5627 5626 5625 5624
5718 5717 5716 5716 5715 5714 5714 5713 5712 5711 5710 5709 5708 5706 5705 5703 5700 5698 5695 5692 5688 5684 5679 5674 5669 5664 5659 5655 5650 5646 5642 5639 5637 5635 5633 5632 5631 5629 5628 5626 5625 5624 5624
5714 5713 5712 5712 5711 5710 5709 5708 5707 5706 5705 5703 5702 5701 5699 5697 5694 5692 5689 5685 5682 5678 5674 5669 5664 5660 5655 5652 5648 5644 5641 5639 5637 5635 5634 5633 5632 5630 5629 5627 5626 5625 5624
5711 5710 5709 5708 5707 5706 5704 5703 5702 5701 5700 5698 5697 5696 5694 5692 5689 5687 5684 5680 5677 5673 5670 5666 5661 5658 5654 5650 5647 5645 5642 5640 5638 5637 5636 5635 5633 5632 5630 5629 5627 5626 5625
5708 5706 5705 5704 5702 5701 5700 5699 5698 5696 5695 5694 5693 5691 5690 5687 5685 5682 5680 5677 5673 5670 5667 5663 5660 5657 5654 5651 5648 5646 5644 5642 5641 5639 5638 5636 5635 5633 5632 5630 5629 5627 5625
5705 5703 5702 5700 5699 5697 5696 5695 5694 5692 5691 5690 5689 5688 5686 5684 5682 5679 5677 5674 5671 5668 5665 5663 5660 5657 5655 5652 5650 5648 5646 5645 5643 5642 5640 5638 5637 5635 5633 5631 5629 5627 5625